Flag for Germany Weather past 2 weeks in Uelzen, Lower Saxony, Germany

Now
70 °F

Thunderstorms. Partly sunny.


Feels Like: 70 °F
Forecast: 58 / 65 °F
Wind: 8 mph from South

Location: Fassberg

Current Time: Jul 7, 2015 at 8:13:20 PM

Latest Report: Jul 7, 2015 at 7:20 PM


Visibility: 6 mi

Pressure: 29.71 "Hg

Humidity: 88%

Dew point: 66 °F

Location of UelzenLocation

Historic Weather in Uelzen — Graph

°F

Uelzen temperature yesterday

Maximum temperature yesterday: 75 °F (at 4:20 PM)
Minimum temperature yesterday: 59 °F (at 11:20 PM)
Average temperature yesterday: 68 °F

Past Weeks' High & Low Weather Summary

 TemperatureHumidityPressure
High99 °F (Jul 4, 2:20 PM)100% (Jun 22, 9:20 PM)30.30 "Hg (Jun 22, 9:20 PM)
Low48 °F (Jun 22, 11:20 PM)27% (Jul 4, 6:20 PM)29.65 "Hg (Jun 22, 9:20 PM)
Average67 °F67%30.07 "Hg
* Reported Jun 22 6:20 PM — Jul 7 6:20 PM, Uelzen, Weather by CustomWeather, © 2015

Note: Actual official high and low records may vary slightly from our data, if they occured in-between our weather recording intervals... More about our weather records

Advertising

Uelzen weather history for previous 24 hours

 ConditionsComfort  
Time TempWeatherWind HumidityBarometerVisibility
6:20 PM
Tue, Jul 7
77 °FBroken clouds.2 mph65%29.71 "HgN/A
6:02 PM77 °FSprinkles. Broken clouds.3 mph54%29.71 "Hg6 mi
5:57 PM79 °FSprinkles. Broken clouds.5 mph51%29.74 "Hg4 mi
5:20 PM82 °FBroken clouds.3 mph37%29.74 "HgN/A
4:20 PM84 °FBroken clouds.10 mph33%29.77 "HgN/A
3:20 PM84 °FBroken clouds.15 mph31%29.80 "HgN/A
2:20 PM84 °FBroken clouds.13 mph33%29.80 "HgN/A
1:20 PM82 °FBroken clouds.8 mph37%29.83 "HgN/A
12:20 PM81 °FScattered clouds.9 mph39%29.86 "HgN/A
11:20 AM77 °FPassing clouds.8 mph44%29.89 "HgN/A
10:20 AM75 °FPassing clouds.10 mph47%29.92 "HgN/A
9:20 AM72 °FMild.9 mph53%29.95 "HgN/A
8:20 AM68 °FMild.7 mph60%29.98 "HgN/A
7:20 AM61 °FCool.2 mph77%29.98 "HgN/A
6:20 AM52 °FCool.2 mph94%30.01 "HgN/A
5:20 AM50 °FFog.No wind94%30.01 "HgN/A
4:20 AM50 °FFog.No wind94%30.01 "HgN/A
3:20 AM50 °FPassing clouds.No wind94%30.04 "HgN/A
2:20 AM52 °FPassing clouds.No wind94%30.07 "HgN/A
1:20 AM54 °FPassing clouds.No wind82%30.07 "HgN/A
12:20 AM57 °FPassing clouds.1 mph77%30.07 "HgN/A
11:20 PM
Mon, Jul 6
59 °FPassing clouds.1 mph77%30.07 "HgN/A
10:20 PM66 °FPassing clouds.3 mph56%30.07 "HgN/A
9:20 PM70 °FPassing clouds.6 mph50%30.07 "HgN/A
8:20 PM72 °FPassing clouds.7 mph47%30.07 "HgN/A
Weather by CustomWeather, © 2015

See weather overviewHow to use our weather pages